www.pogodaiklimat.ru

Погода и климат >> Архив погоды >> Россия >> Камчатский край >> Усть-Воямполка


ПОГОДА в Усть-Воямполке

  • Прогноз погоды в Усть-Воямполке
  • Монитор погоды в Усть-Воямполке

АРХИВ ПОГОДЫ в Усть-Воямполке

Время (UTC), дата Ветер
(напр.,м/с)
 
Видим.   Явления Облачность Т
(С)
Тd
(С)
f
(%)
Тe
(С)
Тes
(С)
Комфортность P
(гПа)
Po
(гПа)
Тmin
(С)
Tmax
(С)
R
(мм)
R24
(мм)
S
(см)
06 17.07 З 4 50 км 10/0
[As op]
+11.6 +9.8 89 +9 +10 1011.2 1010.4
12 17.07 З 5 20 км 10/10 300 м
[St]
+8.9 +8.8 99 +5 +5 1012.1 1011.3
18 17.07 Ю 4 50 км 10/10 600 м
[Sc]
+9.7 +9.6 99 +7 +7 1011.8 1011.0
00 18.07 ЮЗ 4 10 км слаб. ливневой дождь 10/10 600 м
[Cb cap]
+11.0 +10.4 96 +8 +8 1012.9 1012.1
06 18.07 ЮЗ 4 50 км {ливн. осадки} 10/10 600 м
[Sc]
+12.1 +10.3 89 +10 +10 1013.7 1012.8
12 18.07 ЮВ 5 20 км 10/10 600 м
[Sc]
+11.9 +11.3 96 +9 +9 1014.0 1013.2
18 18.07 ЮВ 6 50 км 10/10 600 м
[Sc]
+12.3 +11.5 95 +10 +10 1013.3 1012.4
00 19.07 Ю 4 10 км слаб. ливневой дождь 10/10 600 м
[Cb cap]
+16.5 +16.0 97 +16 +16 1013.5 1012.7
06 19.07 З 2 10 км слаб. ливневой дождь 10/10 600 м
[Cb cap]
+11.9 +11.9 100 +11 +11 1015.8 1014.9
12 19.07 С 3 10 км слаб. ливневой дождь 10/10 600 м
[Cb cap]
+11.9 +11.8 99 +10 +10 1016.6 1015.8
18 19.07 ЮВ 5 50 км {ливн. осадки} 10/10 600 м
[Sc]
+14.7 +14.4 98 +13 +13 1016.2 1015.4
00 20.07 З 1 50 км 10/10 600 м
[Sc]
+17.2 +14.9 86 +18 +18 1015.4 1014.6
06 20.07 З 4 50 км 10/10 600 м
[Sc]
+11.5 +11.2 98 +9 +9 1013.5 1012.6
12 20.07 ЮЗ 3 20 км {ливн. осадки} 10/10 600 м
[Sc]
+10.5 +10.4 99 +8 +8 1012.8 1012.0
18 20.07 ЮЗ 5 50 км 10/10 600 м
[Sc]
+10.9 +10.8 99 +8 +8 1012.2 1011.3
00 21.07 ЮЗ 8-10
{14}
10 км слаб. ливневой дождь 10/10 600 м
[Cb cap]
+10.3 +10.0 98 +6 +6 1011.1 1010.2 +10.2
06 21.07 З 6 10 км слаб. ливневой дождь 10/10 600 м
[Cb cap]
+10.9 +10.3 96 +8 +8 1009.7 1008.9
12 21.07 З 7
{11}
20 км {ливн. осадки} 10/10 300 м
[St]
+7.1 +7.0 99 +2 +2 1010.4 1009.5
18 21.07 Ю 4 20 км 10/10 300 м
[St]
+7.1 +7.0 99 +3 +3 1010.4 1009.5
00 22.07 З 4 50 км 10/10 600 м
[Sc]
+10.3 +9.0 92 +8 +8 1010.7 1009.8
06 22.07 З 5 50 км 10/10 600 м
[Sc]
+10.8 +9.2 90 +8 +8 1009.5 1008.7
12 22.07 ЮЗ 4 20 км 10/10 600 м
[Sc]
+9.7 +9.2 97 +7 +7 1009.4 1008.6
18 22.07 З 12-14
{14}
10 км слаб. ливневой дождь 10/10 600 м
[Cb cap]
+9.3 +8.7 96 +4 +4 1008.4 1007.5
00 23.07 СЗ 6 50 км {ливн. осадки} 10/10 300 м
[St]
+8.6 +7.1 90 +5 +5 1011.0 1010.1
06 23.07 СЗ 5 50 км 8/0
[Ac trans]
+9.8 +5.7 76 +7 +8 1011.9 1011.0
12 23.07 З 5 20 км 6/0
[Ac trans]
+7.9 +5.2 83 +4 +4 1012.4 1011.5
18 23.07 Ю 5 50 км 8/0
[Ac trans]
+1.6 +1.5 99 -4 -4 1011.5 1010.6
00 24.07 З 5 50 км 5/0
[Ac trans Ci fib]
+10.1 +7.2 82 +7 +12 1011.2 1010.3

 

Местоположение метеостанции Усть-Воямполка (Камчатский край, Россия): широта 58.50 долгота 159.10 высота над уровнем моря 7 м.

В архиве по умолчанию представлена погода в Усть-Воямполке за последнюю неделю. Архивные данные за месяц целиком и за предыдущие месяцы, начиная с января 2011 года, Вы можете получить, выбрав интересующий диапазон дат из раскрывающегося списка и нажав кнопку "Ввод!".


*Определитесь, кто Вы:
робот инопланетянин человек

Внимание! Время в таблицах - всемирное. Для получения местного времени необходимо прибавить поправку, которая равна 12 ч.

Смотрите также архив погоды в соседних городах и на ближайших метеорологических станциях:

Погода в Палане (Камчатский край, Россия) (79 км)
Погода в Тигиле (Камчатский край, Россия) (88 км)
Погода в Усть-Хайрюзово (Камчатский край, Россия) (213 км)
Погода в Оссоре (Камчатский край, Россия) (238 км)
Погода на Мысе Озерном (Камчатский край, Россия) (259 км)
Погода в Ключах (Камчатский край, Россия) (263 км)
Погода в Козыревске (Камчатский край, Россия) (276 км)
Погода в Эссо (Камчатский край, Россия) (287 км)
Погода в Брохово (Магаданская область, Россия) (308 км)
Погода на Шелихова (Магаданская область, Россия) (309 км)

Пояснения к столбцам:

Ветер - указаны скорость ветра в м/с - средняя за 10 мин, порывы в срок и между сроками (в фигурных скобках) и направление, откуда дует ветер: С - северный, СВ - северо-восточный, В - восточный, ЮВ - юго-восточный, Ю - южный, ЮЗ - юго-западный, З - западный, СЗ - северо-западный.
Видимость - горизонтальная дальность видимости в метрах или километрах. При видимости от 1 до 10 км при отсутствии осадков обычно наблюдается дымка, при ухудшении видимости до 1 км и менее - туман. В сухую погоду видимость может ухудшаться дымом, пылью или мглою.
Явления - указаны атмосферные явления, наблюдавшиеся в срок или в последний час перед сроком; фигурными скобками обозначены явления, наблюдавшиеся между сроками (за 1-3 часа до срока); квадратными скобками обозначены град или гололедные отложения с указанием их диаметра в мм.
Облачность - указаны через наклонную черту общая и нижняя облачность в баллах и высота нижней границы облаков в метрах; квадратными скобками обозначены формы облаков: Ci - перистые, Cs - перисто-слоистые, Cc - перисто-кучевые, Ac - высококучевые, As - высокослоистые, Sc - слоисто-кучевые, Ns - слоисто-дождевые, Cu - кучевые, Cb - кучево-дождевые. Подробнее классификацию облаков см. в Атласе облаков (PDF).
T - Температура воздуха - температура, измеренная на высоте 2 м над землей.
Td - Температура точки росы - температура, при понижении до которой содержащийся в воздухе водяной пар достигнет насыщения.
f - Относительная влажность воздуха - влажноcть воздуха, измеренная на высоте 2 м над землей.
Te - Эффективная температура - температура, которую ощущает одетый по сезону человек в тени. Характеристика душности погоды. При расчете учитывается влияние влажности воздуха и скорости ветра на теплоощущения человека.
Tes - Эффективная температура на солнце - температура, которую ощущает человек, с поправкой на солнечный нагрев. Характеристика знойности погоды. Зависит от высоты солнца над горизонтом, облачности и скорости ветра. Ночью, в пасмурную погоду, а также при ветре 12 м/с и более поправка равна нулю.
P - Атмосферное давление - приведенное к уровню моря атмосферное давление.
Po - Атмосферное давление - измеренное на уровне метеостанции атмосферное давление.
Tmin - Минимальная температура - минимум температуры воздуха на высоте 2 м над землей.
Tmax - Максимальная температура - максимум температуры воздуха на высоте 2 м над землей.
R - Количество осадков - Количество выпавших осадков за период времени, мм. При наведении курсора мыши на число - период времени, за который выпало указанное количество осадков.
R24 - Количество осадков - Количество выпавших осадков за 24 часа, мм.
S - Снежный покров - Высота снежного покрова, см. При наведении курсора мыши на число - состояние снежного покрова и степень покрытия местности в баллах.